Regional Weather Roundup
Issued by NWS

Home | Current Version | Previous Version | Graphics & Text | Print | Product List | Glossary On
Versions: 1 2 3 4 5 6 7 8 9 10 11 12 13 14 15 16 17 18 19 20 21 22 23 24 25 26 27 28 29 30 31 32 33 34 35 36 37 38 39 40 41 42 43 44 45 46 47 48 49 50
000
ASUS43 KMKX 172011
RWRWI

WISCONSIN REGIONAL WEATHER ROUNDUP
NATIONAL WEATHER SERVICE MILWAUKEE/SULLIVAN WI
200 PM CST FRI NOV 17 2017

NOTE: "FAIR" INDICATES FEW OR NO CLOUDS BELOW 12,000 FEET WITH NO
SIGNIFICANT WEATHER AND/OR OBSTRUCTIONS TO VISIBILITY.

WIZ001-002-006>008-014>016-023>028-172100-
NORTHWEST WISCONSIN

CITY           SKY/WX    TMP DP  RH WIND       PRES   REMARKS
SUPERIOR ARPT  LGT RAIN  35  34  97 S5        29.64F WCI  31
ASHLAND        MIX PCPN  33  32  96 SW7       29.67S FOG     WCI  27
HAYWARD        LGT RAIN  34  34 100 S5        29.65F FOG     WCI  30
SIREN          CLOUDY    34  34  97 CALM      29.65F FOG
CUMBERLAND     DRIZZLE   32  32 100 SE6       29.64F WCI  26
RICE LAKE      DRIZZLE   34  34  99 SE3       29.67F
CHETEK         DRIZZLE   34  34  99 CALM      29.66F
LADYSMITH      CLOUDY    35  34  96 SE3       29.67F FOG
EAU CLAIRE     CLOUDY    36  35  96 CALM      29.65F FOG
MENOMONIE      LGT RAIN  37  37 100 E3        29.65F
NEW RICHMOND   DRIZZLE   36  35  99 SE3       29.64F
OSCEOLA        LGT RAIN  36  36 100 E6        29.66F WCI  32
$$

WIZ003>005-009-010-017-018-172100-
NORTH CENTRAL WISCONSIN

CITY           SKY/WX    TMP DP  RH WIND       PRES   REMARKS
MANITOWISH WTR DRIZZLE   32  32 100 S5        29.66S WCI  27
ARBOR VITAE    MIX PCPN  34  33  96 S7        29.66F WCI  28
WOODRUFF       MIX PCPN  34  33  96 S7        29.66F WCI  28
RHINELANDER    CLOUDY    33  32  96 S10       29.68R WCI  25
EAGLE RIVER    MIX PCPN  32  32 100 SW6       29.67R WCI  27
LAND O LAKES   MIX PCPN  33  33  98 SW3       29.69R
PHILLIPS       DRIZZLE   32  32 100 S6        29.65F WCI  26
TOMAHAWK       DRIZZLE   32  31  96 S3        29.68R
MEDFORD        DRIZZLE   32  32  99 S9        29.67S WCI  24
MERRILL        CLOUDY    34  33  95 SW3       29.69S
$$

WIZ029-030-035-036-043>047-172100-
CENTRAL WISCONSIN

CITY           SKY/WX    TMP DP  RH WIND       PRES   REMARKS
WAUSAU         CLOUDY    34  31  88 S16       29.66F WCI  24
MOSINEE        LGT RAIN  34  32  93 S13       29.69F WCI  25
MARSHFIELD     CLOUDY    34  31  88 S14       29.65F FOG     WCI  25
STEVENS POINT  CLOUDY    33  32  96 S9        29.69F FOG     WCI  25
WAUPACA        CLOUDY    39  32  75 S12G18    29.73F WCI  32
WAUTOMA        CLOUDY    37  30  75 S14       29.72F WCI  28
WISC RAPIDS    CLOUDY    36  31  82 S10       29.68F WCI  28
CAMP DOUGLAS   CLOUDY    37  34  87 SE10      29.66F WCI  30
$$

WIZ011>013-019>022-031-037>040-048>050-172100-
NORTHEAST WISCONSIN

CITY           SKY/WX    TMP DP  RH WIND       PRES   REMARKS
ANTIGO         CLOUDY    32  32  99 S17       29.67F FOG     WCI  21
SHAWANO        DRIZZLE   40  32  74 S5        29.73F
OCONTO         CLOUDY    40  35  81 S10G17    29.74F WCI  34
STURGEON BAY   CLOUDY    41  36  82 S18G35    29.77F
GREEN BAY      CLOUDY    40  37  89 S15       29.75F WCI  32
MANITOWOC      CLOUDY    40  37  89 S23G32    29.79F WCI  30
APPLETON       CLOUDY    37  28  70 S13       29.73F WCI  29
CLINTONVILLE   LGT RAIN  37  32  81 S12       29.72F WCI  30
OSHKOSH        CLOUDY    39  32  76 S14G24    29.74F WCI  31
$$

WIZ032>034-041-042-053>061-172100-
SOUTHWEST WISCONSIN

CITY           SKY/WX    TMP DP  RH WIND       PRES   REMARKS
LA CROSSE      CLOUDY    39  36  89 S8        29.65F FOG     WCI  33
SPARTA         CLOUDY    37  35  91 S7        29.67F WCI  32
VIROQUA        CLOUDY    35  35 100 SE12G18   29.64F WCI  27
BOSCOBEL       CLOUDY    39  36  89 VRB5      29.69F FOG
PRAIRIE DU CHI CLOUDY    38  36  91 SE10      29.66F FOG     WCI  31
PLATTEVILLE    CLOUDY    37  37 100 SE12      29.69F WCI  30
$$

WIZ056-057-062-063-064-067-068-172100-
SOUTH CENTRAL WISCONSIN

CITY           SKY/WX    TMP DP  RH WIND       PRES   REMARKS
REEDSBURG      CLOUDY    35  35 100 S6        29.70F FOG     WCI  30
BARABOO/DELLS  CLOUDY    36  32  87 S13G18    29.70F WCI  27
LONE ROCK      CLOUDY    38  36  92 SE12      29.71F FOG     WCI  30
MINERAL POINT  CLOUDY    36  36 100 SE15G21   29.69F FOG     WCI  26
MADISON        CLOUDY    37  32  82 S21G30    29.72F WCI  26
MIDDLETON      CLOUDY    38  35  89 S10G17    29.73F WCI  30
WATERTOWN      CLOUDY    37  34  87 S8G16     29.76F WCI  31
MONROE         CLOUDY    36  34  93 SE17      29.72F FOG     WCI  25
JANESVILLE     CLOUDY    39  34  81 S15G22    29.77F WCI  31
$$

WIZ051-052-058>065-066-070>072-172100-
SOUTHEAST WISCONSIN

CITY           SKY/WX    TMP DP  RH WIND       PRES   REMARKS
MILWAUKEE      CLOUDY    42  34  73 S15       29.81F
WAUKESHA       CLOUDY    37  28  70 SE12      29.81F WCI  30
MILWAUKEE/TIMM CLOUDY    39  28  65 S8        29.82F WCI  34
RACINE         CLOUDY    42  34  73 S18G26    29.83F
BURLINGTON     MIX PCPN  41  37  83 S12G21    29.81F
KENOSHA        CLOUDY    43  30  60 S10       29.81F
FOND DU LAC    CLOUDY    40  30  67 S17G29    29.74F WCI  31
SHEBOYGAN      LGT RAIN  40  37  89 S24G32    29.79F WCI  29
WEST BEND      LGT RAIN  37  32  81 S10       29.79F WCI  30
JUNEAU         LGT RAIN  37  32  81 SE17G23   29.76F WCI  28
$$

LSZ147-162-172100-
LAKE SUPERIOR

STATION/POSITION TIME  TEMP    WIND        PRES    WAVE
                       AIR SEA DIR/SP/G            HT/PER
                 (UTC) (F)     (DEG/KT/KT) (MB)    (FT/S)
DEVILS ISLAND    2000   35     180/  3/  6 1004.6F
SAXON HARBOR     1940   36     210/  6/  9 1004.1F
$$

LMZ867-665-643>646-172100-
LAKE MICHIGAN

STATION/POSITION TIME  TEMP    WIND        PRES    WAVE
                       AIR SEA DIR/SP/G            HT/PER
                 (UTC) (F)     (DEG/KT/KT) (MB)    (FT/S)
N MID LAKE BUOY  1950   41 49  170/ 25/ 31 1009.5F   8/ 6
NORTHPORT PIER   1940   42     160/ 16/ 23 1008.1F
KEWAUNEE LAKESHO 1830   41     170/ 27/ 32 1010.2F
SHEBOYGAN LAKESH 2000   41     170/ 27/ 30 1008.9F
PORT WASHINGTON  1940   41     170/ 19/ 26 1010.8F
MILWAUKEE LAKESH 1950   41     170/ 15/ 17   N/A
S MID LAKE BUOY  1950   45 50  150/ 23/ 27 1011.7F   5/ 6
KENOSHA   LAKESH 2000   43     160/ 20/ 22 1009.5
$$

TC  - TEMPERATURE IN CELSIUS
VSB - VISIBILITY IN STATUTE MILES
WCI - WIND CHILL INDEX
HX  - HEAT INDEX





USA.gov is the U.S. government's official web portal to all federal, state and local government web resources and services.